Weather History for Faribault, MN

Change the Weather History Date:

Saturday, October 6, 2012

  Actual Average Record
Temperature  
Mean Temperature 38 °F -  
Max Temperature 42 °F 63 °F 89 °F (2007)
Min Temperature 33 °F 39 °F 21 °F (1976)
Degree Days  
Heating Degree Days 28    
Moisture  
Dew Point 27 °F    
Average Humidity 67    
Maximum Humidity 87    
Minimum Humidity 46    
Precipitation  
Precipitation 0.00 in - - ()
Sea Level Pressure  
Sea Level Pressure 30.22 in    
Wind  
Wind Speed 10 mph (NW)    
Max Wind Speed 14 mph    
Max Gust Speed 21 mph    
Visibility 10 miles    
Events      
Averages and records for this station are not official NWS values.
T = Trace of Precipitation, MM = Missing Value Source: NWS Daily Summary

Daily Weather History Graph

Daily Weather History Graph

Search for Another Location

Airport:

Trip Planner

Search our weather history database for the weather conditions in past years. The results will help you decide how hot, cold, wet, or windy it might be!

Date:

Astronomy

Oct. 06, 2012 Rise Set
Actual Time 7:17 AM CDT 6:43 PM CDT
Civil Twilight 6:48 AM CDT 7:12 PM CDT
Nautical Twilight 6:15 AM CDT 7:46 PM CDT
Astronomical Twilight 5:41 AM CDT 8:20 PM CDT
Moon 10:50 PM CDT (10/6) 1:22 PM CDT (10/6)
Length of Visible Light 12h 24m
Length of Day
11h 26m
Waning Gibbous, 65% of the Moon is Illuminated
Oct 6
Waning Gibbous
Oct 8
Last Quarter
Oct 15
New
Oct 21
First Quarter
Oct 29
Full

Hourly Weather History & Observations

Time (CDT) Temp. Windchill Dew Point Humidity Pressure Visibility Wind Dir Wind Speed Gust Speed Precip Events Conditions
12:14 AM 37.4 °F 28.9 °F 26.6 °F 65% 30.15 in 10.0 mi WNW 13.8 mph 19.6 mph N/A   Scattered Clouds
12:34 AM 35.6 °F 27.5 °F 26.6 °F 70% 30.15 in 10.0 mi WNW 11.5 mph 15.0 mph N/A   Clear
12:55 AM 35.6 °F 27.1 °F 26.6 °F 70% 30.16 in 10.0 mi WNW 12.7 mph 20.7 mph N/A   Scattered Clouds
1:14 AM 35.6 °F 29.9 °F 26.6 °F 70% 30.16 in 10.0 mi WNW 6.9 mph 10.4 mph N/A   Mostly Cloudy
1:54 AM 33.8 °F 24.8 °F 28.4 °F 81% 30.16 in 10.0 mi West 12.7 mph 16.1 mph N/A   Scattered Clouds
2:14 AM 33.8 °F 24.8 °F 28.4 °F 81% 30.16 in 10.0 mi West 12.7 mph - N/A   Scattered Clouds
2:34 AM 33.8 °F 24.3 °F 28.4 °F 81% 30.16 in 10.0 mi West 13.8 mph - N/A   Overcast
2:54 AM 35.6 °F 27.5 °F 28.4 °F 75% 30.16 in 10.0 mi West 11.5 mph 18.4 mph N/A   Overcast
3:14 AM 35.6 °F 27.5 °F 28.4 °F 75% 30.16 in 10.0 mi WNW 11.5 mph 17.3 mph N/A   Overcast
3:34 AM 35.6 °F 26.6 °F 28.4 °F 75% 30.15 in 10.0 mi WNW 13.8 mph 18.4 mph N/A   Overcast
3:54 AM 35.6 °F 27.5 °F 28.4 °F 75% 30.15 in 10.0 mi WNW 11.5 mph 18.4 mph N/A   Overcast
4:14 AM 35.6 °F 27.5 °F 28.4 °F 75% 30.16 in 10.0 mi WNW 11.5 mph 17.3 mph N/A   Overcast
4:34 AM 35.6 °F 27.1 °F 28.4 °F 75% 30.16 in 10.0 mi WNW 12.7 mph 18.4 mph N/A   Mostly Cloudy
4:54 AM 35.6 °F 27.5 °F 28.4 °F 75% 30.16 in 10.0 mi WNW 11.5 mph 17.3 mph N/A   Mostly Cloudy
5:14 AM 35.6 °F 27.1 °F 30.2 °F 81% 30.17 in 10.0 mi WNW 12.7 mph - N/A   Overcast
5:34 AM 35.6 °F 29.2 °F 30.2 °F 81% 30.18 in 10.0 mi WNW 8.1 mph - N/A   Overcast
5:54 AM 35.6 °F 28.0 °F 30.2 °F 81% 30.18 in 10.0 mi WNW 10.4 mph 16.1 mph N/A   Overcast
6:14 AM 35.6 °F 28.6 °F 30.2 °F 81% 30.19 in 10.0 mi WNW 9.2 mph - N/A   Overcast
6:34 AM 35.6 °F 29.2 °F 30.2 °F 81% 30.19 in 10.0 mi WNW 8.1 mph - N/A   Overcast
6:54 AM 35.6 °F 29.2 °F 30.2 °F 81% 30.19 in 10.0 mi NW 8.1 mph - N/A   Overcast
7:14 AM 35.6 °F 30.7 °F 30.2 °F 81% 30.20 in 10.0 mi NW 5.8 mph - N/A   Overcast
7:34 AM 35.6 °F 29.2 °F 30.2 °F 81% 30.20 in 10.0 mi NW 8.1 mph - N/A   Overcast
7:54 AM 35.6 °F 29.9 °F 30.2 °F 81% 30.21 in 10.0 mi NW 6.9 mph - N/A   Overcast
8:14 AM 35.6 °F 29.9 °F 30.2 °F 81% 30.22 in 10.0 mi NW 6.9 mph - N/A   Mostly Cloudy
8:34 AM 35.6 °F 28.6 °F 30.2 °F 81% 30.23 in 5.0 mi NW 9.2 mph - N/A   Drizzle
8:54 AM 35.6 °F 29.9 °F 32.0 °F 87% 30.24 in 7.0 mi NW 6.9 mph - N/A   Light Drizzle
9:14 AM 35.6 °F 29.9 °F 32.0 °F 87% 30.24 in 10.0 mi NW 6.9 mph - N/A   Overcast
9:34 AM 35.6 °F 28.0 °F 30.2 °F 81% 30.25 in 10.0 mi NW 10.4 mph - N/A   Overcast
9:54 AM 37.4 °F 29.8 °F 30.2 °F 75% 30.25 in 10.0 mi NW 11.5 mph 16.1 mph N/A   Overcast
10:14 AM 37.4 °F 29.3 °F 30.2 °F 75% 30.26 in 10.0 mi NW 12.7 mph 16.1 mph N/A   Overcast
10:34 AM 37.4 °F 29.8 °F 30.2 °F 75% 30.26 in 10.0 mi NW 11.5 mph - N/A   Overcast
10:54 AM 37.4 °F 30.3 °F 30.2 °F 75% 30.26 in 10.0 mi NW 10.4 mph - N/A   Overcast
11:14 AM 37.4 °F 30.3 °F 30.2 °F 75% 30.26 in 10.0 mi NW 10.4 mph - N/A   Overcast
11:34 AM 39.2 °F 32.5 °F 30.2 °F 70% 30.26 in 10.0 mi WNW 10.4 mph - N/A   Overcast
11:54 AM 39.2 °F 33.0 °F 28.4 °F 65% 30.27 in 10.0 mi NW 9.2 mph - N/A   Overcast
12:15 PM 39.2 °F 32.0 °F 28.4 °F 65% 30.27 in 10.0 mi NW 11.5 mph 17.3 mph N/A   Overcast
12:34 PM 39.2 °F 33.0 °F 28.4 °F 65% 30.27 in 10.0 mi NW 9.2 mph - N/A   Overcast
12:54 PM 39.2 °F 32.5 °F 26.6 °F 61% 30.27 in 10.0 mi NW 10.4 mph - N/A   Overcast
1:14 PM 39.2 °F 33.6 °F 26.6 °F 61% 30.26 in 10.0 mi NNW 8.1 mph - N/A   Overcast
1:34 PM 39.2 °F 33.6 °F 26.6 °F 61% 30.26 in 10.0 mi NNW 8.1 mph - N/A   Overcast
1:55 PM 39.2 °F 33.6 °F 26.6 °F 61% 30.26 in 10.0 mi North 8.1 mph - N/A   Overcast
2:14 PM 41.0 °F 35.2 °F 26.6 °F 57% 30.25 in 10.0 mi NNW 9.2 mph - N/A   Overcast
2:34 PM 41.0 °F 34.3 °F 26.6 °F 57% 30.25 in 10.0 mi NNW 11.5 mph 16.1 mph N/A   Overcast
2:54 PM 42.8 °F 36.6 °F 26.6 °F 53% 30.25 in 10.0 mi NW 11.5 mph 19.6 mph N/A   Overcast
3:14 PM 42.8 °F 37.5 °F 24.8 °F 49% 30.24 in 10.0 mi NNW 9.2 mph - N/A   Overcast
3:34 PM 42.8 °F 37.5 °F 26.6 °F 53% 30.24 in 10.0 mi NNW 9.2 mph - N/A   Overcast
3:54 PM 41.0 °F 35.2 °F 24.8 °F 53% 30.24 in 10.0 mi NNW 9.2 mph - N/A   Overcast
4:14 PM 42.8 °F 38.0 °F 24.8 °F 49% 30.23 in 10.0 mi NNW 8.1 mph 16.1 mph N/A   Overcast
4:34 PM 42.8 °F 38.6 °F 24.8 °F 49% 30.23 in 10.0 mi NW 6.9 mph - N/A   Overcast
4:54 PM 42.8 °F 38.6 °F 23.0 °F 46% 30.22 in 10.0 mi NW 6.9 mph - N/A   Mostly Cloudy
5:14 PM 41.0 °F 38.0 °F 23.0 °F 49% 30.22 in 10.0 mi NNW 4.6 mph - N/A   Scattered Clouds
5:34 PM 42.8 °F 39.3 °F 23.0 °F 46% 30.22 in 10.0 mi North 5.8 mph - N/A   Mostly Cloudy
5:54 PM 42.8 °F 40.1 °F 23.0 °F 46% 30.23 in 10.0 mi NW 4.6 mph - N/A   Overcast
6:14 PM 41.0 °F 36.4 °F 23.0 °F 49% 30.23 in 10.0 mi NW 6.9 mph - N/A   Overcast
6:34 PM 39.2 °F 35.0 °F 23.0 °F 52% 30.23 in 10.0 mi NW 5.8 mph - N/A   Overcast
6:54 PM 39.2 °F 35.9 °F 24.8 °F 56% 30.24 in 10.0 mi WNW 4.6 mph - N/A   Overcast
7:14 PM 39.2 °F 35.9 °F 24.8 °F 56% 30.24 in 10.0 mi WNW 4.6 mph - N/A   Overcast
7:34 PM 39.2 °F 35.9 °F 24.8 °F 56% 30.24 in 10.0 mi WNW 4.6 mph - N/A   Overcast
7:54 PM 39.2 °F 37.0 °F 24.8 °F 56% 30.24 in 10.0 mi WNW 3.5 mph - N/A   Overcast
8:14 PM 39.2 °F - 24.8 °F 56% 30.25 in 10.0 mi Calm Calm - N/A   Overcast
8:34 PM 39.2 °F - 24.8 °F 56% 30.25 in 10.0 mi Calm Calm - N/A   Overcast
8:54 PM 39.2 °F - 26.6 °F 61% 30.25 in 10.0 mi Calm Calm - N/A   Overcast
9:14 PM 37.4 °F 34.9 °F 26.6 °F 65% 30.25 in 10.0 mi WNW 3.5 mph - N/A   Overcast
9:34 PM 37.4 °F 34.9 °F 26.6 °F 65% 30.25 in 10.0 mi WNW 3.5 mph - N/A   Overcast
9:54 PM 37.4 °F 34.9 °F 26.6 °F 65% 30.25 in 10.0 mi West 3.5 mph - N/A   Overcast
10:14 PM 39.2 °F 35.9 °F 26.6 °F 61% 30.25 in 10.0 mi West 4.6 mph - N/A   Overcast
10:34 PM 39.2 °F 35.9 °F 26.6 °F 61% 30.25 in 10.0 mi West 4.6 mph - N/A   Overcast
10:54 PM 37.4 °F 33.8 °F 26.6 °F 65% 30.24 in 10.0 mi West 4.6 mph - N/A   Overcast
11:14 PM 37.4 °F 34.9 °F 26.6 °F 65% 30.24 in 10.0 mi West 3.5 mph - N/A   Overcast
11:34 PM 37.4 °F 32.8 °F 26.6 °F 65% 30.24 in 10.0 mi West 5.8 mph - N/A   Overcast
11:54 PM 37.4 °F 32.8 °F 26.6 °F 65% 30.23 in 10.0 mi West 5.8 mph - N/A   Overcast